Showing default

KUIPER-00353, 68865

Orbit data source: Space-Track

KUIPER-00353, 68865 is an American payload satellite in LEO that was launched on Tue, 28 Apr 2026 UTC launched from the Air Force Eastern Test Range (AFETR). Payload-class satellites include a variety of spacecraft equipped with specific instruments for various scientific and technological missions. These include communications satellites like Starlink; space stations such as the ISS; scientific satellites like the Hubble; Earth observation satellites from companies like Planet Labs, Umbra, and HawkEye 360; GPS; miniature CubeSats for education and research; and military/defense satellites.

Loading next visibility...
Identifier
68865, 2026-095B
Orbit
LEO
Country
Flag of USUS
Related business
None
Manufacturer
Unknown
Mission
Operational spacecraft
Bus & Motor
Unknown
Mass
Unknown
Launch date (UTC)
2026-04-28 (4 days ago)
Launch vehicle
Unknown
Launch site
Air Force Eastern Test Range (AFETR)
Object type
Payload
Rocket body
Debris
Shape & HBR
Unknown
Radar Cross Section
RCS unknown

Expand to show TLE details & history
Last TLE update: 7 hours ago

TLE from 7 hours ago
0 KUIPER-00353
1 68865U 26095B   26122.16670139  .00001986  00000-0  61949-4 0  9998
2 68865  51.8828 104.8651 0001357  76.0415 142.8908 15.38362537  1300
Epoch: 2026-05-02T04:00Z
TLE epoch observation values (Epoch: 2026-05-02T04:00:03.000Z)
Latitude
-29.83917°
Longitude
31.35105°
Altitude
460.632 km
Speed
7.636 km/s
True Right ascension
20h 45m 48s
True Declination
-29° 41' 04"
Sunlit
Object was in daylight at epoch
Visualization orbit readout
Latitude
Unknown
Longitude
Unknown
Altitude
Unknown
Speed
Unknown
Apparent Right ascension
Unknown
Apparent Declination
Unknown
Sunlit
N/A
Visualization observer readout
Local Sidereal Time
18:38:07
Azimuth
Unknown
Elevation
Unknown
Doppler factor
Unknown
Orbital elements
Apogee altitude
452.343 km
Perigee altitude
450.49 km
Semi-major axis
6,829.554 km
Eccentricity
0.00014
Inclination
51.8828°
RAAN
104.8651°
Arg. of periapsis
76.0415°
True anomaly
142.90018°
Mean anomaly
142.8908°
Eccentric anomaly
142.89549°
Mean motion
3.84552 °/min
Orbital period
93.62 mins
BSTAR
0.000061949
Loading maneuver chart data...
Computing Atmospheric mass density...
Loading historical data...
Loading historical data...
Loading historical data...
Loading historical data...
Loading historical data...
Loading historical data...
Loading historical data...

Documentation

Showing up to 5 results
|